Meteo Giornale » Osservazioni meteo Francia » Parigi-Orly

ore: 14:30 - Osservazioni Meteo Parigi-Orly
Lat. 48° 44' N Lon. 2° 24' E Alt. 89 metri s.l.m.

sereno Europe/Paris

4 °C

Sereno

Temp. 24 Ore

-2 °C

5 °C

Nord/Nord-Est

25.9 Km/h

Dew point -4 °C

Umidità 55 %

Visibilità  10 Km

Il sole sorge alle ore 07:42

Il sole tramonta alle ore 18:24

Data e Ora Cielo e Fenomeni T °C DP °C Um. % Pres. hPa Vis. km Vento km/h
Oggi h: 14:30 sereno Sereno 4 -4 55 1017 10 N/NE 25.9
Oggi h: 14:00 sereno Sereno 4 -4 55 1017 10 NE 24
Oggi h: 13:30 sereno Sereno 4 -4 55 1018 10 NE 25.9
Oggi h: 13:00 sereno Sereno 3 -4 59 1018 10 N/NE 27.8
Oggi h: 12:30 sereno Sereno 3 -4 59 1018 10 N/NE 22.2
Oggi h: 12:00 sereno Sereno 2 -4 64 1018 10 NE 22.2
Oggi h: 11:30 sereno Sereno 1 -4 69 1019 10 N/NE 24
Oggi h: 11:00 sereno Sereno 1 -4 69 1019 10 NE 22.2
Oggi h: 10:30 sereno Sereno 1 -4 69 1019 9 N/NE 24
Oggi h: 10:00 sereno Sereno -0 -4 74 1019 7 N/NE 22.2
Oggi h: 09:37 sereno Sereno -0 -4 74 1019 6 NE 22.2
Oggi h: 09:00 sereno Sereno -1 -4 80 1019 6 N/NE 22.2
Oggi h: 08:30 foschia Foschia -1 -4 80 1019 5 N/NE 18.5
Oggi h: 08:00 foschia Foschia -2 -4 86 1019 4 N/NE 16.7
Oggi h: 07:30 foschia Foschia -2 -4 86 1019 4 N/NE 14.8
Oggi h: 07:00 sereno Sereno -1 -4 80 1018 6 N/NE 13
Oggi h: 06:30 sereno Sereno -1 -4 80 1018 6 N/NE 14.8
Oggi h: 06:00 sereno Sereno -1 -4 80 1018 6 N/NE 16.7
Oggi h: 05:30 sereno Sereno -1 -4 80 1018 6 N/NE 18.5
Oggi h: 05:00 sereno Sereno -1 -4 80 1018 6 N/NE 20.3
Oggi h: 04:30 sereno Sereno -1 -4 80 1018 6 N/NE 20.3
Oggi h: 04:00 sereno Sereno -0 -4 74 1019 6 N/NE 18.5
Oggi h: 03:30 sereno Sereno -0 -3 80 1019 6 N/NE 18.5
Oggi h: 03:00 sereno Sereno -0 -3 80 1019 6 N 14.8
Oggi h: 02:30 sereno Sereno -0 -3 80 1019 6 N/NE 20.3
Oggi h: 02:00 sereno Sereno 0 -3 80 1020 6 N/NE 20.3
Oggi h: 01:30 sereno Sereno 0 -3 80 1020 6 N/NE 16.7
Oggi h: 01:00 sereno Sereno 1 -3 74 1020 6 N/NE 18.5
Oggi h: 00:30 sereno Sereno 0 -3 80 1020 6 N/NE 18.5
Oggi h: 00:00 sereno Sereno 1 -3 74 1020 6 N/NE 20.3
Ieri h: 23:30 sereno Sereno 1 -3 74 1020 6 N/NE 14.8
Ieri h: 23:00 sereno Sereno 1 -3 74 1021 6 N/NE 16.7
Ieri h: 22:30 sereno Sereno 2 -2 74 1020 6 N/NE 20.3
Ieri h: 22:00 sereno Sereno 2 -2 74 1021 6 N/NE 20.3
Ieri h: 21:30 sereno Sereno 2 -2 74 1021 6 N 16.7
Ieri h: 21:00 sereno Sereno 2 -2 74 1021 6 N/NE 18.5
Ieri h: 20:30 sereno Sereno 2 -1 80 1021 6 N/NE 20.3
Ieri h: 20:00 sereno Sereno 2 -1 80 1021 6 N/NE 22.2
Ieri h: 19:30 sereno Sereno 3 -1 74 1021 6 N 22.2
Ieri h: 18:30 sereno Sereno 3 -2 69 1020 8 N 18.5
Ieri h: 18:00 sereno Sereno 3 -2 69 1020 8 N/NE 16.7
Ieri h: 17:30 sereno Sereno 4 -2 64 1020 8 N 20.3
Ieri h: 17:00 poco_nuvoloso Poco Nuvoloso 4 -2 64 1020 8 N/NE 18.5
Ieri h: 16:30 sereno Sereno 5 -2 60 1020 8 N/NE 20.3
Ieri h: 16:00 sereno Sereno 5 -2 60 1021 8 N/NE 20.3
Ieri h: 15:30 sereno Sereno 4 -2 64 1021 8 NE 24